User: anonymous   Login
Location: El Corozo
(10.5833°N, 66.9667°W)
Time: 12:21:16
(UTC+00:00)
Language:

COSMOS 2455 - Orbit

View from above orbital plane
View from above orbital plane
View from above satellite
View from above satellite

Ground track
Ground track

The orbit data is extracted from the following two-line orbital elements,

1 36095U 09063A   24206.19645976  .00000060  00000-0  96727-4 0  9993
2 36095  67.1479 138.1062 0009296 269.6122  90.3898 13.96915749748521
Epoch (UTC): 24 July 2024 04:42:54
Eccentricity: 0.0009296
inclination: 67.1479°
perigee height: 898 km
apogee height: 911 km
right ascension of ascending node: 138.1062°
argument of perigee: 269.6122°
revolutions per day: 13.96915749
mean anomaly at epoch: 90.3898°
orbit number at epoch: 74852

The dashed part of the orbit path shows where the satellite is in the earth's shadow,  

DLR